NEOSSAT

Satellite information

Favourite Embed

Satellite Type and Status

PAYLOADIN ORBIT

Key statistics

Satellite NEOSSAT at a glance.

Uptime

4515

Days in orbit

Revolutions

≈ 14.4

Per day

Orbit

SSO

Sun Synchronous Orbit

Inclination

98.4

Latest

Satellite identification and parameters

Extended collection of information and parameters for NEOSSAT.

Object identification

Identified? True

Debris? False

Object name: NEOSSAT

International designator: 2013-009D

Object number (NORAD): 39089

Object ID (CCSDS): 39089

Country: CANADA (CA)

Current information (Y/N): Y

RCS size: MEDIUM

Orbital parameters

Period: 100.305 minutes

Inclination: 98.4078 deg

SMA: 7151.135 km

Apoapsis: 780.682 km

Periapsis: 765.318 km

RAAN: 10.9526 deg

Eccentricy: 0.0010742

Argument of periapsis: 190.7788 deg

Mean anomaly: 169.317 deg

Mean motion: 14.35622688 rev/day

Mean motion (dot): 0.00000162 rev/day2

B* drag term: 0.000070902 1/REarth

Two-line elements (TLE)

Creation date: July 6, 2025, 6:05 p.m.

Reference frame: TEME

Reference center: EARTH

Epoch: July 6, 2025, 11:19 a.m. UTC

TLE line 0: 0 NEOSSAT

TLE line 1: 1 39089U 13009D 25187.47204036 .00000162 00000-0 70902-4 0 9992

TLE line 2: 2 39089 98.4078 10.9526 0010742 190.7788 169.3170 14.35622688647137

Live tracking on map

Real-time ground track for satellite NEOSSAT.

In-orbit conjunctions

There are no conjunctions computed for NEOSSAT, at the moment. Check back to stay up to date, as we update our databases every day.

Go to all conjunctions

Associated space launch

SARAL or Satellite with ARgos and ALtiKa is a cooperative altimetry technology mission of Indian Space Research Organisation (ISRO) and CNES (Space Agency of France). SARAL is tasked to perform altimetric measurements designed to study ocean circulation and sea surface elevation.

NEOSSAT was lifted into orbit during the mission ‘PSLV-CA | SARAL’, on board a PSLV space rocket.

The launch took place on Feb. 25, 2013, 12:31 p.m. from Satish Dhawan Space Centre First Launch Pad.

For more information about the launch, click the button.

Launch to space PSLV-CA | SARAL
PSLV-CA | SARAL

Agency: N/A

Status: Launch Successful

Launch date: Feb. 25, 2013, 12:31 p.m. UTC

Rocket: PSLV

Launch pad: Satish Dhawan Space Centre First Launch Pad

Location: Satish Dhawan Space Centre, India

...

Latest news about this satellite

There are no fresh news available about this satellite. Check back as we update our databases every day.


Newsletter sign-up

Weekly statistics, charts and insights to help you stay on top of the space industry.